User: anonymous   Login
Location: Unspecified
(0.0000°N, 0.0000°E)
Time: 11:44:39
(UTC-05:00)
Language:

Okean 3 - Orbit

View from above orbital plane
View from above orbital plane
View from above satellite
View from above satellite

Ground track
Ground track

The orbit data is extracted from the following two-line orbital elements,

1 21397U 91039A   19232.69483975  .00000153  00000-0  12216-4 0  9997
2 21397  82.5208 103.5124 0019400  98.5350 261.8069 14.92826050528306
Epoch (UTC): 20 August 2019 16:40:34
Eccentricity: 0.0019400
inclination: 82.5208°
perigee height: 575 km
apogee height: 602 km
right ascension of ascending node: 103.5124°
argument of perigee: 98.5350°
revolutions per day: 14.92826050
mean anomaly at epoch: 261.8069°
orbit number at epoch: 52830

The dashed part of the orbit path shows where the satellite is in the earth's shadow,  

DLR